Regional Weather Roundup
Issued by NWS

Home | Current Version | Previous Version | Text Only | Print | Product List | Glossary On
Versions: 1 2 3 4 5 6 7 8 9 10 11 12 13 14 15 16 17 18 19 20 21 22 23 24 25 26 27 28 29 30 31 32 33 34 35 36 37 38 39 40 41 42 43 44 45 46 47 48 49 50
829
ASUS43 KDTX 181701
RWRMI
MICHIGAN HOURLY REGIONAL WEATHER ROUNDUP
NATIONAL WEATHER SERVICE DETROIT/PONTIAC MI
1200 PM EST SAT NOV 18 2017

NOTE: "FAIR" INDICATES FEW OR NO CLOUDS BELOW 12,000 FEET WITH NO
SIGNIFICANT WEATHER AND/OR OBSTRUCTION TO VISIBILITY.

MIZ047>049-052>055-059>063-066>070-074>076-081>083-181800-
SOUTHEAST LOWER MICHIGAN

CITY           SKY/WX    TMP DP  RH WIND       PRES   REMARKS
ADRIAN         RAIN      45  44  97 E7        29.37F FOG
ALMA           CLOUDY    42  42  99 N8        29.43F
ANN ARBOR      RAIN      45  45 100 NE6       29.38F FOG
BAD AXE        CLOUDY    42  42  99 CALM      29.43F FOG
CARO           CLOUDY    44  43  97 N3        29.42S FOG
DETROIT CITY   LGT RAIN  57  46  66 SE3       29.41F
DETROIT        HVY RAIN  46  46 100 CALM      29.41F VSB 1
FLINT          CLOUDY    45  43  93 CALM      29.41F
GROSSE ILE     MIX PCPN  45  45  99 CALM      29.40F
HILLSDALE      RAIN      45  43  93 E8        29.32F
HOWELL         RAIN      44  44 100 SE3       29.39F VSB 1/2

CITY           SKY/WX    TMP DP  RH WIND       PRES   REMARKS
JACKSON        LGT RAIN  45  43  93 E8        29.35F FOG
LAMBERTVILLE   RAIN      50  48  92 SE3       29.37F
LANSING        LGT RAIN  44  44 100 NE5       29.40F FOG
LAPEER         CLOUDY    44  43  98 CALM      29.41F FOG
MASON          RAIN      46  44  93 NE6       29.36F
MONROE         RAIN      48  46  93 CALM      29.38F
MT. CLEMENS    FOG       45  45 100 NE3       29.40F VSB 1
PONTIAC        FOG       43  43 100 SE3       29.40F VSB 1/4
PORT HOPE        N/A     43  41  93 NW3       29.42F
PORT HURON     CLOUDY    45  43  93 CALM      29.42F FOG
TRI CITIES     CLOUDY    44  43  96 N7        29.43F
MIDLAND        CLOUDY    43  41  95 N3        29.43F
TROY           LGT RAIN  46  45  94 CALM      29.42F VSB 1
SAGINAW HB     CLOUDY    43  41  93 N5        29.43S FOG
$$
MIZ043>046-050>051-056>058-064>065-071>073-077>080-181800-
SOUTHWEST LOWER MICHIGAN

CITY           SKY/WX    TMP DP  RH WIND       PRES   REMARKS
BATTLE CREEK   LGT RAIN  44  44 100 N8        29.37F FOG
BENTON HARBOR  LGT RAIN  44  40  85 MISG      29.39F
BIG RAPIDS     LGT SNOW  39  37  91 N13       29.45F WCI  32
COLDWATER      LGT RAIN  46  46 100 E3        29.34F
FREMONT        RAIN      40  39  99 N10       29.46F WCI  33
HOLLAND        LGT RAIN  42  39  89 N8        29.44F FOG
GRAND RAPIDS   RAIN      42  42 100 N9        29.43S FOG
IONIA          RAIN      42  42  99 N3        29.41S
KALAMAZOO      RAIN      44  42  93 N12       29.38F FOG
LUDINGTON      RAIN      41  39  93 N13       29.49F
MARSHALL       RAIN      44  44  98 CALM      29.34F
MOUNT PLEASANT LGT RAIN  41  39  92 N6        29.43F
MUSKEGON       LGT RAIN  41  37  86 N14       29.46F FOG
SOUTH HAVEN    LGT RAIN  42  41  93 N9        29.41F
$$
MIZ016>042-181800-
NORTHERN LOWER MICHIGAN

CITY           SKY/WX    TMP DP  RH WIND       PRES   REMARKS
ALPENA         CLOUDY    39  39 100 NW6       29.48F WCI  35
BEAVER ISLAND  CLOUDY    40  36  86 N7        29.54F
BELLAIRE       CLOUDY    38  37  98 N6        29.51F WCI  33
CADILLAC       MIX PCPN  36  36  99 N6        29.44F WCI  31
CHARLEVOIX     CLOUDY    39  36  90 N8        29.55F WCI  33
FRANKFORT      CLOUDY    41  39  92 N7        29.52S FOG
GAYLORD        FOG       34  33  96 N6        29.47F VSB 1/4 WCI  29
GRAYLING       MIX PCPN  35  33  93 NE8       29.48F WCI  29
HARBOR SPRINGS CLOUDY    38  36  92 N6        29.52S WCI  33
HOUGHTON LAKE  LGT RAIN  37  35  92 N10       29.45F WCI  30
MANISTEE       RAIN      40  39  97 N8        29.50S WCI  34
OSCODA         CLOUDY    39  38  95 N5        29.45F
PELLSTON       CLOUDY    39  36  89 N5        29.53S
ROGERS CITY    CLOUDY    39  35  85 NE8       29.50S WCI  34
TRAVERSE CITY  CLOUDY    40  37  89 NE9       29.49F WCI  34
$$
MIZ007>008-015-181800-
EASTERN UPPER MICHIGAN

CITY           SKY/WX    TMP DP  RH WIND       PRES   REMARKS
KINROSS        PTSUNNY   38  34  85 N9        29.52F WCI  31
MACKINAC ISLAN CLOUDY    39  37  91 N12       29.50F WCI  32
NEWBERRY       CLOUDY    35  34  96 NW5       29.53F WCI  31
S. S. MARIE    CLOUDY    39  33  79 N7        29.51F WCI  34
MUNISING         N/A     40  37  89 N18       29.58S WCI  31
$$
MIZ004>006-011>014-085-181800-
CENTRAL UPPER MICHIGAN

CITY           SKY/WX    TMP DP  RH WIND       PRES   REMARKS
MANISTIQUE     CLOUDY    38  33  81 N10       29.55F WCI  32
ESCANABA       CLOUDY    39  36  89 NW8G16    29.58S WCI  33
MENOMINEE      CLOUDY    38  35  89 N12G17    29.61S WCI  30
SAWYER-GWINN   CLOUDY    34  32  93 N9        29.60S WCI  26
$$
MIZ001>003-009>011-084-181800-
WESTERN UPPER MICHIGAN

CITY           SKY/WX    TMP DP  RH WIND       PRES   REMARKS
IRON MOUNTAIN  CLOUDY    35  30  82 NW14      29.60F WCI  26
HOUGHTON       CLOUDY    33  27  78 N10       29.65S WCI  25
COPPER HARBOR    N/A     35  30  82 NE20G26   29.65S WCI  24
IRONWOOD       CLOUDY   N/A N/A N/A NW9       29.70S
$$

ABBREVIATIONS USED IN REMARKS
   TC - TEMPERATURE IN CELSIUS
  WCI - WIND CHILL INDEX
   HX - HEAT INDEX
  VSB - VISIBILITY





USA.gov is the U.S. government's official web portal to all federal, state and local government web resources and services.